Knox, IN

11:46 AM CDT on July 23, 2017 (GMT -0500)
Starke County

Weather History for KOXI - March, 2013

Change the Weather History Date:

Sunday, March 24, 2013

  Actual Average (KRCR) Record (KRCR)
Temperature  
Mean Temperature 32 °F -  
Max Temperature 37 °F 49 °F 78 °F (2017)
Min Temperature 26 °F 27 °F 19 °F (2014)
Degree Days  
Heating Degree Days 34    
Moisture  
Dew Point 25 °F    
Average Humidity 76    
Maximum Humidity 94    
Minimum Humidity 50    
Precipitation  
Precipitation 0.00 in - - ()
Sea Level Pressure  
Sea Level Pressure 29.75 in    
Wind  
Wind Speed 11 mph (NE)    
Max Wind Speed 25 mph    
Max Gust Speed 32 mph    
Visibility 9 miles    
Events      
Averages and records for this station are not official NWS values.
T = Trace of Precipitation, MM = Missing Value Source: NWS Daily Summary

Daily Weather History Graph

Daily Weather History Graph

Search for Another Location

Airport or City:

Trip Planner

Search our weather history database for the weather conditions in past years. The results will help you decide how hot, cold, wet, or windy it might be!

Date:

Astronomy

Mar. 24, 2013 Rise Set
Actual Time 6:42 AM CDT 7:03 PM CDT
Civil Twilight 6:15 AM CDT 7:31 PM CDT
Nautical Twilight 5:42 AM CDT 8:03 PM CDT
Astronomical Twilight 5:09 AM CDT 8:36 PM CDT
Moon 4:29 PM CDT (3/24) 4:54 AM CDT (3/24)
Length of Visible Light 13h 15m
Length of Day
12h 20m
Waxing Gibbous, 92% of the Moon is Illuminated
Mar 24
Waxing Gibbous
Mar 27
Full
Apr 2
Last Quarter
Apr 10
New
Apr 18
First Quarter

Hourly Weather History & Observations

Time (CDT) Temp. Windchill Dew Point Humidity Pressure Visibility Wind Dir Wind Speed Gust Speed Precip Events Conditions
12:15 AM 26.4 °F 19.8 °F 23.0 °F 87% 30.00 in 10.0 mi NNE 5.8 mph - N/A   Clear
12:35 AM 26.6 °F 18.2 °F 23.2 °F 87% 29.99 in 10.0 mi NE 8.1 mph - N/A   Clear
12:55 AM 27.1 °F 18.2 °F 23.7 °F 87% 29.98 in 10.0 mi NNE 9.2 mph - N/A   Clear
1:15 AM 27.5 °F 20.2 °F 23.9 °F 86% 29.98 in 10.0 mi NE 6.9 mph - N/A   Clear
1:35 AM 27.5 °F 20.2 °F 24.1 °F 87% 29.97 in 10.0 mi NE 6.9 mph - N/A   Clear
1:55 AM 27.5 °F 21.1 °F 24.4 °F 88% 29.98 in 10.0 mi NE 5.8 mph - N/A   Clear
2:15 AM 27.5 °F 20.2 °F 24.8 °F 90% 29.98 in 10.0 mi NE 6.9 mph - N/A   Clear
2:35 AM 27.9 °F 20.6 °F 24.8 °F 88% 29.97 in 10.0 mi NE 6.9 mph - N/A   Clear
2:55 AM 28.2 °F 22.0 °F 24.8 °F 87% 29.96 in 10.0 mi ENE 5.8 mph - N/A   Clear
3:15 AM 28.2 °F 22.0 °F 24.8 °F 87% 29.97 in 10.0 mi ENE 5.8 mph - N/A   Clear
3:35 AM 28.4 °F 20.4 °F 24.8 °F 86% 29.95 in 10.0 mi NE 8.1 mph - N/A   Clear
3:55 AM 28.6 °F 22.4 °F 24.8 °F 86% 29.95 in 10.0 mi ENE 5.8 mph - N/A   Clear
4:15 AM 28.6 °F 21.5 °F 24.8 °F 86% 29.94 in 10.0 mi ENE 6.9 mph - N/A   Clear
4:35 AM 28.9 °F 21.1 °F 24.8 °F 84% 29.92 in 10.0 mi NE 8.1 mph - N/A   Mostly Cloudy
4:55 AM 29.1 °F 21.3 °F 24.8 °F 84% 29.92 in 10.0 mi ENE 8.1 mph - N/A   Scattered Clouds
5:15 AM 29.1 °F 20.6 °F 25.0 °F 85% 29.91 in 10.0 mi ENE 9.2 mph - N/A   Mostly Cloudy
5:35 AM 29.3 °F 23.2 °F 24.8 °F 83% 29.91 in 10.0 mi ENE 5.8 mph - N/A   Overcast
5:55 AM 29.3 °F 23.2 °F 24.8 °F 83% 29.91 in 10.0 mi ENE 5.8 mph - N/A   Overcast
6:15 AM 29.5 °F 24.5 °F 25.0 °F 83% 29.90 in 10.0 mi NE 4.6 mph - N/A   Overcast
6:35 AM 29.5 °F 23.4 °F 24.8 °F 83% 29.90 in 10.0 mi ENE 5.8 mph - N/A   Overcast
6:55 AM 29.5 °F 21.8 °F 25.2 °F 84% 29.88 in 10.0 mi ENE 8.1 mph - N/A   Overcast
7:15 AM 29.7 °F 21.3 °F 25.2 °F 83% 29.88 in 10.0 mi ENE 9.2 mph - N/A   Overcast
7:35 AM 30.2 °F 21.9 °F 25.2 °F 82% 29.87 in 10.0 mi ENE 9.2 mph - N/A   Overcast
7:55 AM 30.2 °F 21.3 °F 25.3 °F 82% 29.86 in 10.0 mi East 10.4 mph - N/A   Overcast
8:15 AM 30.7 °F 20.0 °F 25.0 °F 79% 29.84 in 10.0 mi East 15.0 mph 20.7 mph N/A   Overcast
8:35 AM 31.1 °F 20.5 °F 25.0 °F 78% 29.84 in 10.0 mi East 15.0 mph 18.4 mph N/A   Overcast
8:55 AM 31.3 °F 21.1 °F 25.3 °F 79% 29.85 in 10.0 mi East 13.8 mph - N/A   Overcast
9:15 AM 31.6 °F 22.1 °F 25.0 °F 76% 29.84 in 10.0 mi East 12.7 mph 18.4 mph N/A   Overcast
9:35 AM 31.8 °F 22.8 °F 25.3 °F 77% 29.82 in 10.0 mi East 11.5 mph - N/A   Overcast
10:15 AM 32.2 °F 20.4 °F 25.7 °F 77% 29.78 in 10.0 mi East 19.6 mph - N/A   Overcast
10:35 AM 32.9 °F 21.6 °F 25.3 °F 74% 29.76 in 10.0 mi ENE 18.4 mph 26.5 mph N/A   Overcast
11:15 AM 33.6 °F 23.7 °F 24.6 °F 70% 29.76 in 10.0 mi East 15.0 mph 24.2 mph N/A   Overcast
11:35 AM 33.3 °F 23.2 °F 24.3 °F 70% 29.76 in 10.0 mi ENE 15.0 mph 20.7 mph N/A   Overcast
12:15 PM 33.8 °F 23.9 °F 24.4 °F 69% 29.74 in 10.0 mi ENE 15.0 mph 19.6 mph N/A   Overcast
12:35 PM 34.9 °F 24.2 °F 24.8 °F 67% 29.73 in 10.0 mi ENE 18.4 mph 23.0 mph N/A   Overcast
12:55 PM 35.6 °F 25.5 °F 24.1 °F 63% 29.71 in 10.0 mi ENE 17.3 mph - N/A   Overcast
1:15 PM 35.6 °F 25.2 °F 23.9 °F 62% 29.70 in 10.0 mi ENE 18.4 mph 24.2 mph N/A   Overcast
1:35 PM 35.6 °F 24.2 °F 23.4 °F 61% 29.68 in 10.0 mi ENE 21.9 mph 26.5 mph N/A   Overcast
1:55 PM 36.3 °F 24.9 °F 23.2 °F 59% 29.66 in 10.0 mi ENE 23.0 mph 27.6 mph N/A   Overcast
2:15 PM 36.9 °F 26.2 °F 23.0 °F 57% 29.64 in 10.0 mi ENE 20.7 mph 26.5 mph N/A   Overcast
2:35 PM 37.2 °F 25.9 °F 21.7 °F 54% 29.63 in 10.0 mi ENE 24.2 mph 32.2 mph N/A   Overcast
2:55 PM 37.2 °F 25.6 °F 20.5 °F 51% 29.61 in 10.0 mi East 25.3 mph 31.1 mph N/A   Overcast
3:15 PM 36.9 °F 25.9 °F 19.9 °F 50% 29.60 in 10.0 mi East 21.9 mph 29.9 mph N/A   Overcast
3:35 PM 37.2 °F 26.4 °F 20.7 °F 51% 29.59 in 10.0 mi ENE 21.9 mph 31.1 mph N/A   Overcast
3:55 PM 36.7 °F 26.3 °F 19.9 °F 51% 29.59 in 10.0 mi ENE 19.6 mph 31.1 mph N/A   Overcast
4:15 PM 36.5 °F 27.4 °F 20.1 °F 52% 29.59 in 10.0 mi ENE 15.0 mph 27.6 mph N/A   Overcast
4:35 PM 36.5 °F 25.2 °F 20.3 °F 52% 29.58 in 10.0 mi ENE 23.0 mph 32.2 mph N/A   Overcast
4:55 PM 36.3 °F 25.8 °F 20.8 °F 53% 29.59 in 10.0 mi East 19.6 mph 25.3 mph N/A   Overcast
5:15 PM 36.0 °F 26.3 °F 21.4 °F 55% 29.58 in 10.0 mi ENE 16.1 mph 21.9 mph N/A   Overcast
5:35 PM 35.6 °F 28.6 °F 21.9 °F 58% 29.61 in 10.0 mi East 9.2 mph - N/A   Overcast
5:55 PM 35.8 °F 28.3 °F 22.5 °F 58% 29.61 in 10.0 mi ENE 10.4 mph - N/A   Overcast
6:15 PM 35.6 °F 28.6 °F 23.2 °F 61% 29.61 in 4.0 mi ENE 9.2 mph - N/A   Overcast
6:35 PM 34.9 °F 26.2 °F 25.0 °F 67% 29.61 in 3.0 mi ENE 12.7 mph - N/A   Overcast
6:55 PM 34.3 °F 26.5 °F 25.7 °F 71% 29.60 in 10.0 mi NE 10.4 mph - N/A   Overcast
7:15 PM 34.0 °F 25.5 °F 26.1 °F 73% 29.60 in 10.0 mi NNE 11.5 mph - N/A   Overcast
7:35 PM 33.6 °F 23.7 °F 26.8 °F 76% 29.60 in 7.0 mi NNE 15.0 mph - N/A   Overcast
7:55 PM 32.9 °F 22.0 °F 27.9 °F 82% 29.60 in 4.0 mi NNE 17.3 mph 24.2 mph N/A   Overcast
8:15 PM 32.7 °F 22.5 °F 29.7 °F 88% 29.60 in 5.0 mi NNE 15.0 mph - N/A   Overcast
8:35 PM 32.2 °F 22.3 °F 30.2 °F 92% 29.61 in 4.0 mi NNE 13.8 mph - N/A   Overcast
8:55 PM 32.0 °F 22.1 °F 30.6 °F 94% 29.61 in 5.0 mi NNE 13.8 mph - N/A   Overcast
9:15 PM 32.4 °F 21.3 °F 29.1 °F 88% 29.60 in 10.0 mi NNE 17.3 mph - N/A   Overcast
9:35 PM 32.5 °F 20.2 °F 28.0 °F 83% 29.60 in 4.0 mi NNE 21.9 mph 26.5 mph N/A   Overcast
9:55 PM 32.0 °F 19.5 °F 28.8 °F 88% 29.60 in 2.5 mi NNE 21.9 mph 31.1 mph N/A   Overcast
10:15 PM 31.8 °F 19.3 °F 28.6 °F 88% 29.60 in 3.0 mi NNE 21.9 mph 26.5 mph N/A   Overcast
10:35 PM 31.3 °F 19.2 °F 28.2 °F 88% 29.60 in 3.0 mi NNE 19.6 mph 28.8 mph N/A   Overcast
10:55 PM 31.1 °F 18.9 °F 27.9 °F 88% 29.60 in 1.5 mi NNE 19.6 mph 31.1 mph N/A   Overcast
11:15 PM 30.6 °F 18.6 °F 28.0 °F 90% 29.61 in 1.5 mi NNE 18.4 mph 31.1 mph N/A   Overcast
11:35 PM 30.0 °F 19.1 °F 28.2 °F 93% 29.61 in 1.5 mi NNE 15.0 mph - N/A   Overcast
11:55 PM 29.8 °F 18.0 °F 28.4 °F 94% 29.61 in 1.2 mi NNE 17.3 mph 21.9 mph N/A   Overcast